Miscellaneous Local Product
Issued by NWS Hastings, NE

Home | Current Version | Previous Version | Text Only | Print | Product List | Glossary On
Versions: 1 2 3 4 5 6 7 8 9 10 11 12 13 14 15 16 17 18 19 20 21 22 23 24 25 26 27 28 29 30 31 32 33 34 35 36 37 38 39 40 41 42 43 44 45 46 47 48 49 50
000
AXUS43 KGID 202002
MISGRI

GID CWA HOURLY WEATHER ROUNDUP
NATIONAL WEATHER SERVICE HASTINGS NE
200 PM CST SAT DEC 20 2014

NOTE: "FAIR" INDICATES FEW OR NO CLOUDS BELOW 12,000 FEET WITH NO
SIGNIFICANT WEATHER AND/OR OBSTRUCTIONS TO VISIBILITY.

...SOUTH CENTRAL NEBRASKA...

CITY           SKY/WX    TMP DP  RH WIND       PRES   REMARKS
GRAND ISLAND   PTSUNNY   33  31  92 SE6       30.00F FOG     WCI  28
HASTINGS       SUNNY     41  32  70 S7        29.98F
KEARNEY        MOSUNNY   36  28  75 S8        29.97F WCI  29
ORD            NOT AVBL
YORK           FOG       32  32 100 CALM      30.03S VSB 1/4
AURORA         CLOUDY    33  33 100 S7        30.01S FOG     WCI  26
LEXINGTON      PTSUNNY   39  33  78 CALM      29.97F
HOLDREGE       PTSUNNY   38  29  70 SW8       29.98F WCI  32
HEBRON         CLOUDY    32  32  97 S3        30.03F FOG

...NEBRASKA PANHANDLE...

CITY           SKY/WX    TMP DP  RH WIND       PRES   REMARKS
CHADRON        MOSUNNY   45  29  53 W5        29.92F
ALLIANCE       MOSUNNY   39  29  67 W10       29.92F WCI  32
SCOTTSBLUFF    SUNNY     41  30  65 N6        29.94F
SIDNEY         MOSUNNY   45  29  53 NW9       29.96F

...WESTERN AND NORTH CENTRAL NEBRASKA...

CITY           SKY/WX    TMP DP  RH WIND       PRES   REMARKS
VALENTINE      CLOUDY    38  27  64 W7        29.91F WCI  33
AINSWORTH      CLOUDY    35  28  75 SW5       29.91F WCI  30
ONEILL         MOSUNNY   29  29 100 S3        29.96F
BROKEN BOW     PTSUNNY   42  32  67 S7        29.94F
IMPERIAL       PTSUNNY   45  28  51 NW5       29.95F
NORTH PLATTE   CLOUDY    37  27  67 W7        29.95F WCI  32
MCCOOK         PTSUNNY   44  30  57 S6        29.97F

...EASTERN NEBRASKA...

CITY           SKY/WX    TMP DP  RH WIND       PRES   REMARKS
NORFOLK        CLOUDY    34  31  88 SE8       29.99F FOG     WCI  27
SO SIOUX CITY  CLOUDY    34  30  85 S8        30.06F WCI  27
TEKAMAH        CLOUDY    34  31  88 SE8       30.07S WCI  27
COLUMBUS       CLOUDY    34  28  80 SE7       30.03S WCI  28
ALBION         FOG       31  29  94 SE6       30.00S VSB 1/2 WCI  25
OMAHA EPPLEY   CLOUDY    34  32  92 S6        30.08F FOG     WCI  29
OFFUTT AFB     CLOUDY    34  32  93 E3        30.06F
MILLARD        CLOUDY    33  32  94 NE6       30.07F FOG     WCI  28
LINCOLN        CLOUDY    34  30  85 SE6       30.06F WCI  29
NEBRASKA CITY  CLOUDY    35  34  98 S5        30.07F FOG     WCI  31
BEATRICE       CLOUDY    35  33  90 S5        30.05F FOG     WCI  31
FALLS CITY     CLOUDY    35  32  88 SW6       30.08F FOG     WCI  30

...NORTHERN KANSAS...

CITY           SKY/WX    TMP DP  RH WIND       PRES   REMARKS
GOODLAND       MOSUNNY   54  27  35 W5        29.96F
HILL CITY      MOSUNNY   54  31  41 S8        29.98F
NORTON         CLEAR     50  28  43 SW5       29.97F
PHILLIPSBURG   SUNNY     54  34  47 S5        29.99F
SMITH CENTER   SUNNY     46  34  61 S7        30.00F
BELOIT         SUNNY     46  39  76 S7        30.01F
HAYS           SUNNY     48  34  57 S15       30.01F
RUSSELL        SUNNY     50  39  66 S13       30.00F
CONCORDIA      SUNNY     39  33  79 S7        30.03F WCI  34
SALINA         SUNNY     50  41  71 S16       30.05F
TOPEKA         MOSUNNY   49  39  68 SW9       30.10F



USA.gov is the U.S. government's official web portal to all federal, state and local government web resources and services.